Tracking 29967 objects as of 5-Dec-2024
HD Live streaming from Space Station
objects crossing your sky now

STARLINK-31198

Track STARLINK-31198 now!
10-day predictions
STARLINK-31198 is classified as:


NORAD ID: 58867
Int'l Code: 2024-019Q
Perigee: 494.3 km
Apogee: 496.1 km
Inclination: 43.0 °
Period: 94.4 minutes
Semi major axis: 6866 km
RCS: Unknown
Launch date: January 29, 2024
Source: United States (US)
Launch site: AIR FORCE EASTERN TEST RANGE (AFETR)
Your satellite tracking list
Your tracking list is empty




NASA's NSSDC Master Catalog

Two Line Element Set (TLE):
1 58867U 24019Q   24340.37848067 -.00000391  00000-0 -51043-5 0  9999
2 58867  43.0018 319.6684 0001321 296.1385  63.9330 15.25909747 48858
Source of the keplerian elements: AFSPC